Location: Franzen
(48.6167°N, 15.3833°E)
Time: 09:48:24
(UTC+00:00)

Spot 4 - Pass Details

Date: 22 April 2021
Orbit: 704 x 723 km, 98.3° (Epoch: 16 May)

Event Time Altitude Azimuth Distance (km) Brightness Sun altitude
Exits shadow 22:00:14 73° 333° (NNW) 760 4.0 -27.6°
Drops below altitude 10° 22:04:39 10° 345° (NNW) 2,224 7.4 -27.8°
Sets 22:06:57 0° 346° (NNW) 3,150 8.5 -27.9°
